Sheboygan, WI

2:29 PM CST on November 21, 2017 (GMT -0600)
Sheboygan County Memorial

Weather History for KSBM - December, 2012

Change the Weather History Date:

Monday, December 17, 2012

  Actual Average Record
Temperature  
Mean Temperature 31 °F -  
Max Temperature 36 °F 31 °F 50 °F (1959)
Min Temperature 26 °F 19 °F -8 °F (1951)
Degree Days  
Heating Degree Days 34    
Moisture  
Dew Point 26 °F    
Average Humidity 84    
Maximum Humidity 92    
Minimum Humidity 78    
Precipitation  
Precipitation 0.00 in - - ()
Sea Level Pressure  
Sea Level Pressure 29.72 in    
Wind  
Wind Speed 9 mph (WNW)    
Max Wind Speed 14 mph    
Max Gust Speed 16 mph    
Visibility 10 miles    
Events      
Averages and records for this station are not official NWS values.
T = Trace of Precipitation, MM = Missing Value Source: NWS Daily Summary

Daily Weather History Graph

Daily Weather History Graph

Search for Another Location

Airport or City:

Trip Planner

Search our weather history database for the weather conditions in past years. The results will help you decide how hot, cold, wet, or windy it might be!

Date:

Astronomy

Dec. 17, 2012 Rise Set
Actual Time 7:20 AM CST 4:15 PM CST
Civil Twilight 6:47 AM CST 4:48 PM CST
Nautical Twilight 6:10 AM CST 5:24 PM CST
Astronomical Twilight 5:35 AM CST 5:59 PM CST
Moon 10:20 AM CST (12/17) 9:45 PM CST (12/17)
Length of Visible Light 10h 01m
Length of Day
8h 55m
Waxing Crescent, 25% of the Moon is Illuminated
Dec 17
Waxing Crescent
Dec 19
First Quarter
Dec 28
Full
Jan 4
Last Quarter
Jan 11
New

Hourly Weather History & Observations

Time (CST) Temp. Windchill Dew Point Humidity Pressure Visibility Wind Dir Wind Speed Gust Speed Precip Events Conditions
12:53 AM 36.0 °F 29.0 °F 33.1 °F 89% 29.70 in 10.0 mi West 9.2 mph - N/A   Overcast
1:53 AM 35.1 °F 25.9 °F 32.0 °F 89% 29.71 in 10.0 mi West 13.8 mph - N/A   Overcast
2:02 AM 35.6 °F 28.6 °F 32.0 °F 87% 29.69 in 9.0 mi WNW 9.2 mph - N/A   Overcast
2:53 AM 34.0 °F 28.0 °F 32.0 °F 92% 29.70 in 7.0 mi WNW 6.9 mph - N/A   Overcast
3:53 AM 33.1 °F 24.9 °F 30.9 °F 92% 29.71 in 8.0 mi West 10.4 mph 16.1 mph N/A   Overcast
4:53 AM 32.0 °F 24.2 °F 30.0 °F 92% 29.71 in 7.0 mi West 9.2 mph - N/A   Overcast
5:53 AM 32.0 °F 24.8 °F 28.9 °F 88% 29.73 in 9.0 mi West 8.1 mph - N/A   Overcast
6:53 AM 30.9 °F 22.2 °F 28.0 °F 89% 29.75 in 9.0 mi West 10.4 mph - N/A   Overcast
7:53 AM 30.9 °F 22.2 °F 27.0 °F 85% 29.74 in 10.0 mi West 10.4 mph - N/A   Overcast
8:53 AM 30.0 °F 21.7 °F 26.1 °F 85% 29.73 in 10.0 mi NW 9.2 mph - N/A   Overcast
9:53 AM 30.0 °F 24.1 °F 26.1 °F 85% 29.74 in 9.0 mi West 5.8 mph - N/A   Overcast
10:26 AM 30.2 °F 23.4 °F 24.8 °F 80% 29.71 in 9.0 mi WNW 6.9 mph - N/A   Overcast
10:53 AM 30.0 °F 21.7 °F 25.0 °F 82% 29.73 in 10.0 mi WNW 9.2 mph - N/A   Overcast
11:53 AM 30.0 °F 21.7 °F 25.0 °F 82% 29.71 in 10.0 mi WNW 9.2 mph - N/A   Overcast
12:53 PM 30.0 °F 22.4 °F 25.0 °F 82% 29.71 in 10.0 mi West 8.1 mph - N/A   Overcast
1:53 PM 30.0 °F 21.7 °F 24.1 °F 79% 29.71 in 10.0 mi NW 9.2 mph - N/A   Overcast
2:53 PM 28.9 °F 21.9 °F 24.1 °F 82% 29.71 in 10.0 mi WNW 6.9 mph - N/A   Overcast
3:53 PM 28.9 °F 21.1 °F 23.0 °F 78% 29.72 in 10.0 mi NW 8.1 mph - N/A   Overcast
6:53 PM 28.9 °F 21.1 °F 23.0 °F 78% 29.73 in 10.0 mi NNW 8.1 mph - N/A   Overcast
7:53 PM 28.0 °F 21.7 °F 21.9 °F 78% 29.72 in 10.0 mi NNW 5.8 mph - N/A   Overcast
8:53 PM 28.0 °F 20.0 °F 21.9 °F 78% 29.73 in 10.0 mi NNW 8.1 mph - N/A   Overcast
9:53 PM 27.0 °F 20.5 °F 21.0 °F 78% 29.74 in 10.0 mi NW 5.8 mph - N/A   Mostly Cloudy
10:38 PM 26.6 °F 21.2 °F 21.2 °F 80% 29.71 in 10.0 mi NNW 4.6 mph - N/A   Scattered Clouds
10:53 PM 26.1 °F 20.5 °F 21.0 °F 81% 29.75 in 10.0 mi NW 4.6 mph - N/A   Scattered Clouds
11:53 PM 27.0 °F 21.6 °F 21.9 °F 81% 29.75 in 10.0 mi WNW 4.6 mph - N/A   Overcast